Tracking 21496 objects as of 30-Sep-2020
HD Live streaming from Space Station
objects crossing your sky now

SLOSHSAT

Track SLOSHSAT now!
SLOSHSAT is classified as:


NORAD ID: 28544
Int'l Code: 2005-005C
Perigee: 271.9 km
Apogee: 32,588.7 km
Inclination: 7.0 °
Period: 571.1 minutes
Semi major axis: 22801 km
RCS: 0.5011 m2 (medium)
Launch date: February 12, 2005
Source: European Space Agency (ESA)
Launch site: FRENCH GUIANA (FRGUI)
aabbcc
Your satellite tracking list
Your tracking list is empty




NASA's NSSDC Master Catalog

Two Line Element Set (TLE):
1 28544U 05005C   20273.41668546 +.00002505 +00000-0 +98843-3 0  9994
2 28544 007.0290 287.5911 7086605 085.5261 345.1798 02.52152757136929
Source of the keplerian elements: AFSPC